San Antonio, TX

10:48 PM CDT on September 20, 2017 (GMT -0500)
San Antonio International

Weather History for KSAT - April, 2013

Change the Weather History Date:

Friday, April 5, 2013

  Actual Average Record
Temperature  
Mean Temperature 57 °F 67 °F  
Max Temperature 72 °F 78 °F 93 °F (1936)
Min Temperature 42 °F 55 °F 34 °F (1945)
Degree Days  
Heating Degree Days 8 2  
Month to date heating degree days 24 12  
Since 1 July heating degree days 1158 1467  
Cooling Degree Days 0 4  
Month to date cooling degree days 14 19  
Year to date cooling degree days 131 110  
Growing Degree Days 7 (Base 50)    
Moisture  
Dew Point 44 °F    
Average Humidity 65    
Maximum Humidity 89    
Minimum Humidity 41    
Precipitation  
Precipitation 0.00 in 0.06 in 2.47 in (1991)
Month to date precipitation 1.49 0.29  
Year to date precipitation 5.37 6.15  
Snow  
Snow 0.00 in - - ()
Month to date snowfall T  
Since 1 July snowfall T  
Snow Depth 0.00 in    
Sea Level Pressure  
Sea Level Pressure 30.15 in    
Wind  
Wind Speed 4 mph (SE)    
Max Wind Speed 12 mph    
Max Gust Speed 15 mph    
Visibility 10 miles    
Events      
T = Trace of Precipitation, MM = Missing Value Source: NWS Daily Summary

Daily Weather History Graph

Daily Weather History Graph

Search for Another Location

Airport or City:

Trip Planner

Search our weather history database for the weather conditions in past years. The results will help you decide how hot, cold, wet, or windy it might be!

Date:

Astronomy

Apr. 05, 2013 Rise Set
Actual Time 7:18 AM CDT 7:54 PM CDT
Civil Twilight 6:54 AM CDT 8:18 PM CDT
Nautical Twilight 6:26 AM CDT 8:47 PM CDT
Astronomical Twilight 5:57 AM CDT 9:16 PM CDT
Moon 4:05 AM CDT (4/5) 3:39 PM CDT (4/5)
Length of Visible Light 13h 24m
Length of Day
12h 36m
Waning Crescent, 23% of the Moon is Illuminated
Apr 5
Waning Crescent
Apr 10
New
Apr 18
First Quarter
Apr 25
Full
May 2
Last Quarter

Hourly Weather History & Observations

Time (CDT) Temp. Windchill Dew Point Humidity Pressure Visibility Wind Dir Wind Speed Gust Speed Precip Events Conditions
12:51 AM 48.0 °F - 43.0 °F 83% 30.18 in 10.0 mi East 6.9 mph - N/A   Clear
1:51 AM 48.0 °F - 42.1 °F 80% 30.19 in 10.0 mi NE 3.5 mph - N/A   Clear
2:51 AM 46.0 °F 44.8 °F 42.1 °F 86% 30.19 in 10.0 mi Variable 3.5 mph - N/A   Clear
3:51 AM 45.0 °F 43.5 °F 41.0 °F 86% 30.18 in 10.0 mi NE 3.5 mph - N/A   Clear
4:51 AM 43.0 °F - 39.9 °F 89% 30.18 in 10.0 mi Calm Calm - N/A   Clear
5:51 AM 42.1 °F - 39.9 °F 92% 30.19 in 10.0 mi Calm Calm - N/A   Clear
6:51 AM 43.0 °F - 39.9 °F 89% 30.20 in 10.0 mi Calm Calm - N/A   Clear
7:51 AM 45.0 °F 42.6 °F 41.0 °F 86% 30.25 in 10.0 mi West 4.6 mph - N/A   Partly Cloudy
8:51 AM 48.0 °F - 42.1 °F 80% 30.25 in 10.0 mi ENE 3.5 mph - N/A   Partly Cloudy
9:51 AM 50.0 °F - 42.1 °F 74% 30.25 in 10.0 mi Calm Calm - N/A   Partly Cloudy
10:51 AM 54.0 °F - 43.0 °F 66% 30.24 in 10.0 mi Calm Calm - N/A   Mostly Cloudy
11:51 AM 60.1 °F - 43.0 °F 53% 30.23 in 10.0 mi Calm Calm - N/A   Mostly Cloudy
12:51 PM 63.0 °F - 44.1 °F 50% 30.20 in 10.0 mi SSE 5.8 mph - N/A   Mostly Cloudy
1:51 PM 64.9 °F - 44.1 °F 47% 30.17 in 10.0 mi South 5.8 mph - N/A   Mostly Cloudy
2:51 PM 68.0 °F - 46.0 °F 45% 30.13 in 10.0 mi Calm Calm - N/A   Scattered Clouds
3:51 PM 70.0 °F - 46.0 °F 42% 30.08 in 10.0 mi East 5.8 mph - N/A   Partly Cloudy
4:51 PM 71.1 °F - 46.0 °F 41% 30.06 in 10.0 mi ESE 6.9 mph - N/A   Partly Cloudy
5:51 PM 70.0 °F - 46.9 °F 44% 30.04 in 10.0 mi South 4.6 mph - N/A   Mostly Cloudy
6:51 PM 69.1 °F - 46.9 °F 45% 30.05 in 10.0 mi SSE 6.9 mph - N/A   Mostly Cloudy
7:51 PM 66.0 °F - 46.9 °F 50% 30.04 in 10.0 mi SSE 9.2 mph - N/A   Mostly Cloudy
8:51 PM 63.0 °F - 46.9 °F 56% 30.04 in 10.0 mi ESE 4.6 mph - N/A   Mostly Cloudy
9:51 PM 60.1 °F - 48.0 °F 64% 30.04 in 10.0 mi Calm Calm - N/A   Scattered Clouds
10:51 PM 60.1 °F - 46.9 °F 62% 30.06 in 10.0 mi Calm Calm - N/A   Scattered Clouds
11:51 PM 57.0 °F - 48.9 °F 74% 30.05 in 10.0 mi SE 9.2 mph - N/A   Partly Cloudy